Wind_Speed
4 4 4 5 5 5 5 4 4 4 4 4 5 5 5 6 5 5 5 5 6 6 7 7 8 8 8 8 8 8 8 8 8 9 9 9 9 9 9 9 9 9 9
3 4 4 5 4 4 5 5 5 5 5 5 5 5 5 6 6 5 5 6 6 6 7 8 8 9 9 9 9 9 10 10 10 10 10 10 10 10 10 10 10 11 11
1 2 3 4 4 4 5 5 6 5 6 6 6 6 6 6 6 6 6 7 7 8 8 8 8 9 10 10 10 10 10 11 11 11 11 11 11 11 12 12 12 12 12
1 1 2 3 4 4 5 6 6 6 6 6 6 6 7 7 7 7 7 7 7 8 9 9 9 9 10 10 11 11 12 12 12 12 12 12 12 12 13 13 13 14 13
2 2 2 2 4 4 5 6 6 6 6 6 7 6 7 8 8 8 8 9 9 9 9 9 9 10 11 12 12 12 13 13 13 13 13 14 14 15 14 14 14 15 15
3 2 2 2 3 4 4 5 6 6 6 7 7 7 8 8 9 9 10 10 9 9 9 10 10 11 12 13 13 13 13 14 14 14 14 14 15 15 16 15 16 16 16
4 3 2 1 2 3 4 5 5 6 6 7 7 8 9 9 10 10 10 10 10 10 11 11 11 12 12 13 13 13 14 14 15 16 16 15 16 16 17 17 17 17 17
4 4 1 1 2 2 3 4 5 5 6 7 7 8 9 9 9 10 11 11 11 11 11 12 12 12 13 14 14 14 14 15 15 16 16 16 17 16 18 18 19 18 18
4 4 3 2 2 3 3 4 5 5 6 7 8 8 9 9 10 10 10 11 11 12 12 12 13 13 13 14 14 15 15 16 16 16 16 17 18 18 18 18 19 19 19
5 4 3 3 3 4 4 4 5 5 6 7 8 8 9 10 10 10 10 11 12 12 13 13 13 13 14 14 15 15 15 16 16 16 16 17 18 18 19 19 19 19 19
6 5 5 4 5 5 5 6 6 6 7 7 7 8 9 9 10 10 11 12 13 13 14 13 14 15 15 14 15 15 15 16 16 17 17 18 18 18 19 20 20 20 21
6 6 6 5 6 6 7 7 8 8 8 8 9 9 9 9 10 10 11 12 13 13 14 14 14 15 15 15 16 16 16 17 18 18 18 18 18 19 19 19 20 21 21
6 6 6 6 6 7 8 8 9 8 9 9 10 10 11 11 11 11 11 12 13 13 13 14 14 15 15 16 16 16 17 18 19 19 19 19 19 19 19 20 20 21 22
6 7 7 7 8 8 9 10 10 10 10 11 11 11 12 12 12 12 13 13 13 13 14 15 15 16 16 17 17 17 17 18 18 19 19 19 19 18 18 19 19 20 20
8 8 8 8 9 9 9 10 10 11 12 12 12 12 13 13 13 13 13 14 14 14 15 15 16 17 17 17 17 17 17 18 18 18 19 19 19 19 19 19 20 20 21
10 10 10 10 10 10 10 11 11 11 12 12 12 12 12 13 13 14 14 15 15 15 16 16 17 18 19 18 18 18 18 18 19 19 19 19 19 20 20 21 21 21 21
12 11 11 12 12 12 12 12 12 13 13 14 13 13 13 14 15 15 16 16 16 16 17 18 18 19 20 20 20 20 20 20 20 20 20 20 20 20 21 21 21 21 22
14 14 13 14 14 15 15 15 15 15 15 16 16 16 16 17 17 17 17 18 18 18 18 18 19 20 21 21 21 21 22 22 22 22 22 22 22 22 22 22 22 22 22
17 17 16 16 16 17 17 17 17 18 18 18 18 18 18 19 19 19 20 20 20 21 21 21 21 21 22 23 23 23 23 23 23 23 23 23 23 23 23 23 23 23 23
20 20 20 19 19 19 20 20 20 21 21 21 21 21 21 21 21 21 22 23 23 23 24 24 24 24 24 24 24 24 24 24 23 23 23 23 23 23 23 23 24 24 24
22 22 22 22 22 22 23 23 24 24 24 23 24 23 23 24 24 24 24 24 25 25 26 26 26 26 26 26 25 25 24 24 24 24 24 24 24 24 24 24 25 25 25
25 25 25 25 26 26 26 26 27 27 27 27 27 26 26 26 26 25 26 26 26 26 27 27 28 27 27 27 26 26 25 25 25 25 25 24 24 25 25 25 25 26 26
27 28 28 29 28 28 28 28 29 29 30 30 30 29 28 28 28 28 27 27 27 28 28 28 28 28 28 27 26 25 25 26 26 25 25 26 26 26 26 26 26 26 27
30 31 31 31 30 30 30 31 31 31 31 30 30 30 29 29 29 29 28 28 28 29 30 29 29 29 28 27 26 26 27 27 27 27 26 27 27 27 27 27 28 28 28
33 34 33 33 33 33 33 32 32 32 32 31 32 31 30 30 31 30 30 30 30 30 30 30 30 30 29 28 27 27 27 28 27 27 28 29 29 29 29 29 29 29 30
35 36 35 36 35 35 35 34 34 33 33 33 32 32 32 32 32 32 32 31 31 31 31 31 31 30 30 29 29 28 29 29 29 29 29 29 29 29 29 30 30 31 31
Wind_Direction
182 184 196 205 211 218 223 231 238 240 237 249 258 261 257 251 259 264 259 261 264 263 260 262 265 265 264 264 263 263 261 258 255 256 259 260 264 268 272 274 275 279 282
194 206 211 213 218 226 236 242 248 254 257 264 265 263 261 254 262 270 265 265 267 267 265 266 268 269 270 269 266 266 264 262 261 264 264 262 264 267 270 273 274 278 283
142 213 227 233 233 238 245 247 250 258 270 274 272 272 268 263 265 268 270 270 271 270 268 268 272 274 275 273 271 269 269 268 266 267 265 264 264 267 271 273 275 278 280
34 276 240 245 245 246 249 249 253 261 271 274 273 272 266 265 266 267 273 278 279 278 273 269 273 278 277 274 273 272 272 271 269 269 267 266 266 270 273 274 276 277 278
13 349 290 264 259 260 261 256 255 260 267 270 270 268 263 266 266 268 275 280 280 281 278 273 274 279 280 274 272 272 272 272 271 271 269 269 269 270 272 273 275 277 277
13 1 332 271 265 267 266 263 263 264 266 267 269 270 271 271 272 273 275 276 275 276 278 279 279 279 281 278 273 272 273 273 273 275 273 272 271 270 271 272 274 275 276
19 10 349 310 282 276 272 270 271 269 268 269 272 272 274 276 275 276 277 276 276 277 278 280 281 281 282 282 279 276 275 274 274 275 274 273 274 273 272 272 274 278 277
15 19 15 344 335 310 293 287 285 280 279 278 277 275 277 280 281 280 277 274 275 277 280 282 283 285 282 281 281 279 278 277 277 278 276 276 277 277 275 273 274 276 278
7 5 5 346 341 319 304 299 297 291 285 285 284 283 284 285 286 284 280 275 275 277 279 281 282 286 286 285 280 279 280 281 279 281 281 281 279 277 276 276 275 275 276
3 352 342 332 325 314 303 303 308 300 292 293 292 287 288 286 286 285 282 279 277 277 278 279 280 284 286 287 283 281 280 282 281 283 285 284 284 280 274 275 277 276 278
1 352 337 324 320 316 308 297 294 295 293 295 298 295 294 289 288 286 284 283 280 278 278 280 280 280 283 285 285 285 281 282 282 283 284 284 287 284 279 276 277 276 277
349 346 336 326 317 313 312 304 296 296 296 292 292 293 293 292 295 290 288 287 284 282 281 281 283 282 284 288 289 289 284 284 285 285 286 287 287 286 283 280 278 278 278
322 323 323 317 311 308 307 305 300 299 295 291 286 286 289 293 294 291 292 289 285 283 284 285 286 286 286 287 288 289 286 285 286 285 285 287 288 287 283 280 279 280 280
304 308 305 304 299 300 303 299 297 296 296 293 289 285 286 289 290 290 289 289 290 289 286 284 285 286 286 287 288 288 287 287 287 286 286 286 286 287 285 282 282 283 284
299 300 300 299 298 300 303 303 298 297 296 292 293 294 290 286 287 291 293 289 286 288 288 286 286 286 286 286 288 289 287 287 287 286 286 285 284 286 286 285 284 283 283
293 295 294 295 291 295 298 302 299 295 292 293 292 293 291 293 291 290 290 290 288 288 289 288 287 285 284 285 287 288 288 289 288 288 288 288 286 285 284 284 284 284 283
291 289 286 287 287 289 291 295 294 293 293 295 293 289 288 290 291 292 292 292 291 291 291 289 287 288 287 287 287 288 287 287 287 287 287 287 286 285 283 282 282 282 283
284 283 282 284 285 286 288 289 290 291 291 290 290 288 287 289 290 292 293 292 293 294 294 292 290 289 288 288 287 287 287 287 286 286 287 286 285 284 283 282 282 282 283
280 282 282 282 282 283 284 287 288 288 289 289 287 287 287 288 289 290 291 291 292 293 294 293 292 290 289 289 287 286 286 287 286 286 286 287 286 285 284 283 283 283 283
279 280 280 280 280 282 282 284 286 286 287 288 288 285 285 286 287 288 289 290 291 291 291 291 292 290 290 290 287 286 285 286 286 286 287 286 287 286 284 283 282 282 282
277 279 279 277 279 280 281 281 282 284 286 286 285 285 285 287 288 288 288 289 290 290 290 289 289 291 291 291 289 286 284 284 285 287 288 286 286 286 284 284 283 283 282
278 278 278 278 279 279 278 279 280 281 283 284 284 284 285 287 288 287 287 287 288 290 290 289 290 290 290 290 288 285 283 282 283 285 286 287 286 285 284 284 283 283 283
277 277 278 279 279 280 281 281 280 280 282 283 284 284 284 284 284 285 285 286 286 287 289 290 290 289 290 288 287 285 284 283 283 283 284 285 285 286 286 286 285 284 283
276 277 276 278 279 279 280 280 280 281 282 283 282 282 282 282 283 285 284 285 286 286 288 288 287 288 287 285 284 284 284 283 283 282 282 283 284 284 284 286 286 285 283
275 276 276 276 278 279 280 281 280 281 281 283 281 280 281 280 282 284 285 286 287 287 287 288 288 286 284 283 283 282 281 282 282 282 283 283 284 285 285 285 285 285 284
274 274 276 278 278 279 279 280 280 281 281 282 282 280 280 280 280 280 282 283 285 286 287 287 287 286 284 281 281 281 281 282 283 283 284 285 285 286 286 286 285 284 284
Height
5882 5883 5883 5884 5885 5886 5886 5887 5888 5889 5889 5890 5890 5890 5891 5891 5892 5892 5892 5892 5893 5893 5893 5893 5894 5894 5894 5895 5895 5895 5895 5896 5896 5896 5896 5897 5897 5897 5897 5897 5897 5897 5897
5882 5883 5883 5884 5884 5885 5886 5887 5887 5888 5889 5889 5889 5889 5890 5890 5891 5891 5891 5892 5892 5892 5892 5892 5892 5893 5893 5893 5893 5893 5894 5894 5894 5895 5895 5895 5895 5895 5895 5896 5895 5895 5895
5882 5882 5883 5883 5884 5885 5885 5886 5887 5887 5888 5888 5888 5889 5889 5889 5890 5890 5890 5890 5890 5890 5891 5891 5891 5891 5891 5891 5891 5892 5892 5892 5893 5893 5893 5893 5893 5893 5893 5893 5893 5893 5893
5882 5882 5883 5883 5883 5884 5884 5885 5886 5886 5887 5887 5888 5888 5888 5888 5889 5889 5889 5889 5889 5889 5889 5889 5889 5889 5889 5889 5889 5890 5890 5890 5891 5891 5891 5891 5891 5891 5891 5891 5891 5891 5890
5882 5882 5882 5882 5883 5883 5884 5884 5885 5885 5885 5886 5886 5887 5887 5887 5888 5888 5888 5888 5888 5887 5887 5887 5887 5887 5887 5887 5887 5887 5887 5888 5888 5888 5888 5888 5888 5888 5888 5888 5888 5888 5888
5882 5882 5882 5882 5882 5883 5883 5884 5884 5884 5884 5885 5885 5885 5886 5886 5886 5886 5886 5886 5886 5886 5886 5885 5885 5885 5885 5885 5884 5885 5885 5885 5885 5885 5885 5885 5885 5885 5885 5885 5884 5884 5884
5882 5881 5882 5882 5882 5882 5883 5883 5883 5883 5883 5883 5884 5884 5884 5884 5884 5884 5884 5884 5884 5884 5883 5883 5883 5882 5882 5882 5882 5882 5882 5882 5881 5881 5881 5881 5881 5881 5881 5881 5880 5880 5880
5882 5882 5882 5882 5881 5882 5882 5882 5882 5882 5882 5882 5882 5882 5882 5883 5882 5882 5882 5881 5881 5881 5881 5881 5880 5880 5879 5879 5879 5879 5879 5878 5878 5877 5877 5877 5877 5877 5876 5877 5876 5876 5876
5882 5882 5882 5881 5881 5881 5881 5881 5881 5880 5880 5880 5880 5880 5880 5880 5880 5880 5879 5879 5879 5879 5878 5878 5877 5877 5876 5876 5875 5875 5875 5875 5874 5873 5873 5873 5872 5872 5872 5872 5872 5872 5872
5883 5882 5882 5881 5881 5881 5880 5880 5880 5879 5879 5879 5878 5878 5878 5878 5878 5877 5877 5876 5876 5876 5876 5875 5875 5874 5873 5872 5872 5871 5871 5871 5870 5870 5869 5869 5868 5867 5868 5868 5867 5867 5867
5883 5882 5881 5881 5880 5880 5879 5879 5878 5878 5877 5877 5877 5876 5876 5875 5875 5875 5874 5874 5873 5873 5872 5872 5871 5870 5870 5869 5868 5868 5867 5867 5866 5866 5865 5865 5864 5863 5863 5863 5862 5862 5862
5882 5881 5881 5880 5880 5879 5878 5877 5877 5876 5876 5875 5875 5874 5874 5873 5873 5872 5871 5871 5870 5870 5869 5868 5868 5867 5866 5866 5865 5864 5863 5863 5862 5861 5861 5860 5859 5858 5858 5858 5857 5857 5857
5880 5880 5879 5879 5878 5877 5876 5875 5875 5874 5874 5873 5872 5872 5871 5871 5870 5869 5868 5867 5866 5866 5865 5865 5864 5864 5863 5862 5861 5860 5859 5859 5858 5857 5856 5855 5854 5854 5853 5852 5852 5852 5851
5878 5878 5878 5877 5876 5875 5874 5874 5873 5872 5871 5871 5870 5869 5868 5867 5867 5866 5865 5864 5863 5863 5862 5861 5860 5860 5859 5858 5857 5856 5855 5854 5853 5852 5851 5851 5850 5849 5848 5847 5847 5846 5845
5877 5876 5875 5874 5874 5873 5872 5871 5870 5870 5869 5868 5867 5866 5865 5864 5863 5862 5862 5861 5860 5859 5858 5857 5856 5855 5854 5854 5852 5851 5850 5850 5849 5848 5846 5845 5845 5844 5843 5842 5841 5840 5840
5875 5874 5873 5872 5872 5871 5870 5869 5868 5867 5866 5865 5864 5862 5861 5860 5860 5859 5858 5857 5856 5855 5854 5853 5852 5851 5850 5849 5848 5847 5846 5845 5844 5843 5841 5840 5839 5838 5837 5837 5836 5835 5834
5871 5871 5870 5870 5869 5868 5867 5866 5865 5864 5862 5861 5860 5859 5858 5857 5856 5855 5854 5853 5852 5851 5850 5849 5848 5846 5845 5844 5843 5842 5841 5839 5838 5837 5836 5835 5834 5833 5832 5831 5830 5829 5828
5868 5867 5867 5866 5865 5864 5864 5862 5861 5860 5858 5857 5856 5855 5854 5853 5852 5851 5850 5849 5848 5846 5845 5844 5842 5841 5840 5839 5837 5836 5835 5834 5833 5832 5831 5830 5829 5827 5826 5825 5824 5823 5822
5864 5863 5862 5861 5861 5860 5859 5858 5857 5856 5854 5853 5851 5850 5849 5848 5847 5846 5845 5844 5843 5841 5840 5839 5837 5835 5834 5832 5831 5830 5829 5828 5826 5825 5824 5823 5822 5821 5820 5819 5818 5817 5816
5858 5858 5857 5857 5856 5855 5854 5853 5852 5850 5849 5848 5846 5845 5844 5842 5841 5840 5839 5838 5837 5835 5834 5833 5831 5829 5828 5826 5824 5823 5822 5821 5820 5819 5817 5816 5815 5814 5813 5812 5811 5810 5809
5852 5852 5851 5850 5849 5848 5848 5846 5845 5844 5843 5842 5840 5839 5837 5836 5835 5834 5833 5831 5830 5829 5828 5826 5825 5823 5821 5819 5818 5816 5815 5814 5812 5811 5810 5809 5808 5807 5806 5805 5804 5803 5802
5845 5845 5844 5843 5842 5841 5841 5839 5838 5837 5836 5834 5833 5832 5831 5830 5828 5827 5826 5825 5824 5822 5821 5819 5817 5816 5814 5812 5810 5809 5808 5807 5806 5805 5803 5802 5801 5800 5799 5797 5796 5795 5794
5837 5837 5837 5835 5835 5834 5833 5832 5830 5829 5828 5827 5826 5825 5823 5822 5821 5820 5818 5817 5816 5814 5813 5812 5810 5808 5806 5804 5803 5801 5801 5799 5798 5797 5796 5795 5793 5792 5791 5789 5788 5787 5786
5828 5827 5827 5827 5826 5825 5825 5824 5822 5821 5820 5819 5818 5816 5815 5814 5813 5812 5811 5809 5808 5807 5805 5803 5801 5800 5799 5797 5795 5794 5793 5792 5790 5789 5788 5787 5785 5784 5783 5781 5780 5778 5777
5819 5818 5818 5818 5817 5816 5815 5814 5813 5812 5811 5810 5808 5808 5806 5806 5805 5804 5803 5801 5800 5799 5797 5795 5793 5792 5791 5789 5787 5786 5785 5784 5782 5781 5780 5779 5777 5776 5774 5773 5771 5770 5768
5808 5808 5808 5808 5807 5807 5806 5804 5803 5802 5801 5800 5799 5798 5797 5796 5795 5794 5793 5792 5791 5790 5788 5787 5785 5784 5782 5781 5779 5778 5777 5776 5774 5773 5771 5770 5769 5767 5766 5764 5762 5761 5759